This is the latest recevied weather packets stored in our database for station/object KK7AZD-13. If no packets are shown the sender has not sent any weather packets the latest 10 day(s).
| Time | Temp. | Humidity | Pressure | Rain* | Wind** | Luminosity | Snow |
|---|---|---|---|---|---|---|---|
| 1777510762 | 17.78° C | 30% | 1017.6 hPa | 0 mm | - | 271 W/m² | - |
| 1777509858 | 17.78° C | 31% | 1017.5 hPa | 0 mm | - | 312 W/m² | - |
| 1777508959 | 17.78° C | 28% | 1017.4 hPa | 0 mm | - | 376 W/m² | - |
| 1777508056 | 17.78° C | 27% | 1017.6 hPa | 0 mm | - | 419 W/m² | - |
| 1777507152 | 18.33° C | 30% | 1017.9 hPa | 0 mm | - | 469 W/m² | - |
| 1777506248 | 18.33° C | 28% | 1017.5 hPa | 0 mm | - | 494 W/m² | - |
| 1777505344 | 17.78° C | 28% | 1018.1 hPa | 0 mm | - | 562 W/m² | - |
| 1777504441 | 17.78° C | 30% | 1018 hPa | 0 mm | - | 576 W/m² | - |
| 1777503540 | 17.78° C | 25% | 1018.1 hPa | 0 mm | - | 630 W/m² | - |
| 1777502636 | 17.78° C | 28% | 1018.2 hPa | 0 mm | - | 651 W/m² | - |
| 1777501732 | 17.22° C | 33% | 1018.3 hPa | 0 mm | - | 676 W/m² | - |
| 1777500832 | 16.67° C | 34% | 1018.4 hPa | 0 mm | - | 695 W/m² | - |
| 1777499927 | 16.67° C | 33% | 1018.6 hPa | 0 mm | - | 678 W/m² | - |
| 1777499024 | 16.11° C | 31% | 1018.9 hPa | 0 mm | - | 702 W/m² | - |
| 1777498120 | 15.56° C | 30% | 1018.9 hPa | 0 mm | - | 745 W/m² | - |
| 1777497216 | 15.56° C | 31% | 1018.9 hPa | 0 mm | - | 758 W/m² | - |
| 1777496311 | 15° C | 33% | 1018.9 hPa | 0 mm | - | 751 W/m² | - |
| 1777495412 | 15.56° C | 32% | 1019.2 hPa | 0 mm | - | 764 W/m² | - |
| 1777494508 | 15.56° C | 35% | 1019.1 hPa | 0 mm | - | 772 W/m² | - |
| 1777493606 | 15° C | 31% | 1019.1 hPa | 0 mm | - | 772 W/m² | - |
| 1777492701 | 14.44° C | 43% | 1019.6 hPa | 0 mm | - | 777 W/m² | - |
| 1777491802 | 13.89° C | 37% | 1019.6 hPa | 0 mm | - | 782 W/m² | - |
| 1777490897 | 13.89° C | 37% | 1019.6 hPa | 0 mm | - | 816 W/m² | - |
| 1777489994 | 13.89° C | 44% | 1019.6 hPa | 0 mm | - | 830 W/m² | - |
| 1777489090 | 13.89° C | 45% | 1019.8 hPa | 0 mm | - | 862 W/m² | - |
* Rain latest hour (hover to see other rain measurements)
** Current wind speed in m/s (hover to see current wind gust speed)